Hourly Data Report for August 22, 2013

All times are specified in Local Standard Time (LST). Add 1 hour to adjust for Daylight Saving Time where and when it is observed.

VICTORIA INTL A
BRITISH COLUMBIA

48°38'50.000" N
123°25'33.000" W
19.50 m
1018621
71799
YYJ

Download Data

Hourly Data (August 2013)
Hourly Data Report for August 22, 2013
Temp Definition
°C
Dew Point Temp Definition
°C
Rel Hum Definition
%
Wind Dir Definition
10's deg

Wind Spd Definition
km/h
Visibility Definition
km
Stn Press Definition
kPa
Hmdx Definition


Wind Chill Definition


Weather Definition


TIME
00:00 Legend Double Dagger 14.2 11.4 83 25 12 48.3 101.22     LegendNANA
01:00 Legend Double Dagger 13.4 9.9 79 26 10 48.3 101.21     Clear
02:00 Legend Double Dagger 12.2 9.8 85 24 9 48.3 101.19     LegendNANA
03:00 Legend Double Dagger 10.9 9.2 89 26 8 48.3 101.19     LegendNANA
04:00 Legend Double Dagger 11.6 9.4 86 24 9 48.3 101.17     Clear
05:00 Legend Double Dagger 11.3 9.6 89 24 10 48.3 101.18     LegendNANA
06:00 Legend Double Dagger 13.0 10.2 83 27 12 48.3 101.20     LegendNANA
07:00 Legend Double Dagger 15.4 10.0 70 28 10 48.3 101.21     Mainly Clear
08:00 Legend Double Dagger 18.8 9.4 54 26 6 48.3 101.18     LegendNANA
09:00 Legend Double Dagger 20.8 9.5 48 28 8 48.3 101.13     LegendNANA
10:00 Legend Double Dagger 23.0 10.9 46 2 7 48.3 101.10 25   Mostly Cloudy
11:00 Legend Double Dagger 24.2 11.7 45 6 9 48.3 101.06 26   LegendNANA
12:00 Legend Double Dagger 24.5 12.0 45 7 14 48.3 100.99 27   LegendNANA
13:00 Legend Double Dagger 25.5 11.9 42 8 9 48.3 100.94 28   Mostly Cloudy
14:00 Legend Double Dagger 27.1 12.2 39 9 10 48.3 100.88 29   LegendNANA
15:00 Legend Double Dagger 25.0 12.4 45 15 12 48.3 100.80 27   LegendNANA
16:00 Legend Double Dagger 23.8 12.3 48 9 14 48.3 100.73 26   Mostly Cloudy
17:00 Legend Double Dagger 21.2 11.7 54 10 10 48.3 100.69     LegendNANA
18:00 Legend Double Dagger 18.9 11.3 61 10 9 48.3 100.68     LegendNANA
19:00 Legend Double Dagger 17.7 10.7 63 10 10 48.3 100.67     Mostly Cloudy
20:00 Legend Double Dagger 16.8 10.5 66 11 5 48.3 100.70     LegendNANA
21:00 Legend Double Dagger 15.0 10.3 73 25 2 48.3 100.70     LegendNANA
22:00 Legend Double Dagger 13.0 9.9 81 33 2 48.3 100.65     Mostly Cloudy
23:00 Legend Double Dagger 13.3 10.0 80 14 5 48.3 100.66     LegendNANA

Notes on Data Quality.

Legend

  • E = Estimated
  • M = Missing
  • NA = Not Available
  • ‡ = Partner data that is not subject to review by the National Climate Archives
Date modified: